When you browse on this site, cookies collect data to enhance your experience and personalize the content and advertising you see.
Visit our Privacy Policy to learn more. By continuing to use the site, you agree to this use of cookies and data.

Hourly Weather Calcutta

Today, 25 September, Friday

Time Temperature Precipitation Wind Pressure Humidity
00:00 +29°C° 0 mm 3 mps 753 mmHg 87%
01:00 +29°C° 0.8 mm 3 mps 752 mmHg 86%
02:00 +29°C° 0.8 mm 3 mps 752 mmHg 86%
03:00 +29°C° 0.8 mm 3 mps 751 mmHg 86%
04:00 +29°C° 0.1 mm 3 mps 751 mmHg 87%
05:00 +29°C° 0.1 mm 3 mps 751 mmHg 87%
06:00 +29°C° 0 mm 2 mps 751 mmHg 87%
07:00 +30°C° 0.3 mm 2 mps 752 mmHg 83%
08:00 +31°C° 0.3 mm 3 mps 752 mmHg 79%
09:00 +33°C° 0.3 mm 4 mps 752 mmHg 74%
10:00 +34°C° 0.1 mm 4 mps 752 mmHg 70%
11:00 +35°C° 0.1 mm 4 mps 752 mmHg 66%
12:00 +36°C° 0 mm 5 mps 752 mmHg 62%
13:00 +36°C° 0.7 mm 5 mps 751 mmHg 63%
14:00 +36°C° 0.7 mm 5 mps 750 mmHg 64%
15:00 +35°C° 0.7 mm 5 mps 750 mmHg 66%
16:00 +34°C° 0.5 mm 5 mps 750 mmHg 71%
17:00 +33°C° 0.5 mm 5 mps 750 mmHg 75%
18:00 +32°C° 0.5 mm 4 mps 750 mmHg 80%
19:00 +32°C° 0 mm 4 mps 751 mmHg 81%
20:00 +30°C° 0 mm 4 mps 751 mmHg 83%
21:00 +30°C° 0 mm 4 mps 752 mmHg 84%
22:00 +30°C° 0.1 mm 4 mps 751 mmHg 84%
23:00 +30°C° 0.1 mm 4 mps 751 mmHg 85%

Tomorrow, 26 September, Saturday

Time Temperature Precipitation Wind Pressure Humidity
00:00 +30°C° 0.1 mm 4 mps 751 mmHg 86%
01:00 +29°C° 0.4 mm 4 mps 751 mmHg 86%
02:00 +29°C° 0.4 mm 4 mps 750 mmHg 86%
03:00 +29°C° 0.4 mm 3 mps 750 mmHg 87%
04:00 +29°C° 0.5 mm 3 mps 750 mmHg 87%
05:00 +29°C° 0.5 mm 3 mps 750 mmHg 88%
06:00 +29°C° 0.5 mm 2 mps 750 mmHg 89%
07:00 +30°C° 0.1 mm 3 mps 750 mmHg 84%
08:00 +31°C° 0.1 mm 3 mps 751 mmHg 79%
09:00 +33°C° 0.1 mm 3 mps 751 mmHg 74%
10:00 +34°C° 0 mm 3 mps 751 mmHg 71%
11:00 +35°C° 0 mm 3 mps 751 mmHg 68%
12:00 +36°C° 0 mm 3 mps 751 mmHg 65%
13:00 +35°C° 0.4 mm 4 mps 750 mmHg 66%
14:00 +35°C° 0.4 mm 4 mps 750 mmHg 66%
15:00 +35°C° 0.4 mm 5 mps 749 mmHg 67%
16:00 +34°C° 0.1 mm 5 mps 749 mmHg 72%
17:00 +33°C° 0.1 mm 4 mps 749 mmHg 77%
18:00 +32°C° 0.1 mm 4 mps 750 mmHg 82%
19:00 +30°C° 0.4 mm 4 mps 750 mmHg 83%
20:00 +30°C° 0.4 mm 4 mps 751 mmHg 84%
21:00 +30°C° 0.4 mm 3 mps 752 mmHg 85%
22:00 +30°C° 0.7 mm 3 mps 752 mmHg 86%
23:00 +30°C° 0.7 mm 3 mps 751 mmHg 86%

Day after tomorrow, 27 September, Sunday

Time Temperature Precipitation Wind Pressure Humidity
00:00 +29°C° 0.7 mm 3 mps 751 mmHg 86%
01:00 +29°C° 0.2 mm 3 mps 751 mmHg 87%
02:00 +29°C° 0.2 mm 3 mps 751 mmHg 87%
03:00 +29°C° 0.2 mm 2 mps 751 mmHg 88%
04:00 +29°C° 0 mm 2 mps 751 mmHg 89%
05:00 +29°C° 0 mm 2 mps 751 mmHg 89%
06:00 +29°C° 0 mm 2 mps 751 mmHg 90%
07:00 +30°C° 0.1 mm 2 mps 752 mmHg 85%
08:00 +31°C° 0.1 mm 2 mps 752 mmHg 80%
09:00 +32°C° 0.1 mm 2 mps 753 mmHg 75%
10:00 +34°C° 1.9 mm 2 mps 753 mmHg 73%
11:00 +34°C° 1.9 mm 2 mps 752 mmHg 71%
12:00 +35°C° 1.9 mm 3 mps 752 mmHg 69%
13:00 +34°C° 3.2 mm 2 mps 752 mmHg 72%
14:00 +34°C° 3.2 mm 2 mps 751 mmHg 74%
15:00 +33°C° 3.2 mm 1 mps 750 mmHg 76%
16:00 +32°C° 0.4 mm 2 mps 750 mmHg 77%
17:00 +31°C° 0.4 mm 2 mps 750 mmHg 79%
18:00 +31°C° 0.4 mm 2 mps 750 mmHg 81%
19:00 +30°C° 0 mm 2 mps 751 mmHg 82%
20:00 +30°C° 0 mm 2 mps 752 mmHg 83%
21:00 +30°C° 0 mm 2 mps 752 mmHg 84%
22:00 +29°C° 0.1 mm 2 mps 752 mmHg 85%
23:00 +29°C° 0.1 mm 2 mps 752 mmHg 86%

28 September, Monday

Time Temperature Precipitation Wind Pressure Humidity
00:00 +29°C° 0.1 mm 2 mps 752 mmHg 87%
01:00 +29°C° 0 mm 2 mps 752 mmHg 87%
02:00 +29°C° 0 mm 1 mps 752 mmHg 88%
03:00 +29°C° 0 mm 1 mps 751 mmHg 88%
04:00 +29°C° 0 mm 1 mps 751 mmHg 88%
05:00 +29°C° 0 mm 1 mps 752 mmHg 89%
06:00 +29°C° 0 mm 1 mps 752 mmHg 89%
07:00 +30°C° 0 mm 1 mps 752 mmHg 84%
08:00 +29°C° 0 mm 0 mps 753 mmHg 79%
09:00 +30°C° 0 mm 0 mps 753 mmHg 74%
10:00 +31°C° 0 mm 0 mps 753 mmHg 69%
11:00 +32°C° 0 mm 0 mps 752 mmHg 65%
12:00 +35°C° 0 mm 1 mps 752 mmHg 60%
13:00 +35°C° 0.3 mm 1 mps 751 mmHg 60%
14:00 +36°C° 0.3 mm 1 mps 751 mmHg 59%
15:00 +36°C° 0.3 mm 1 mps 750 mmHg 59%
16:00 +34°C° 1.1 mm 1 mps 750 mmHg 66%
17:00 +34°C° 1.1 mm 2 mps 750 mmHg 72%
18:00 +32°C° 1.1 mm 2 mps 750 mmHg 79%
19:00 +31°C° 0 mm 2 mps 751 mmHg 81%
20:00 +31°C° 0 mm 2 mps 752 mmHg 82%
21:00 +30°C° 0 mm 2 mps 752 mmHg 84%
22:00 +30°C° 0.1 mm 2 mps 752 mmHg 85%
23:00 +30°C° 0.1 mm 2 mps 752 mmHg 86%

29 September, Tuesday

Time Temperature Precipitation Wind Pressure Humidity
00:00 +29°C° 0.1 mm 2 mps 752 mmHg 87%
01:00 +29°C° 0 mm 2 mps 752 mmHg 87%
02:00 +29°C° 0 mm 2 mps 751 mmHg 88%
03:00 +29°C° 0 mm 2 mps 751 mmHg 88%
04:00 +29°C° 0 mm 1 mps 751 mmHg 89%
05:00 +29°C° 0 mm 1 mps 751 mmHg 89%
06:00 +29°C° 0 mm 1 mps 751 mmHg 89%
07:00 +30°C° 0 mm 1 mps 752 mmHg 84%
08:00 +31°C° 0 mm 1 mps 752 mmHg 79%
09:00 +32°C° 0 mm 1 mps 753 mmHg 74%
10:00 +33°C° 0.1 mm 1 mps 752 mmHg 70%
11:00 +34°C° 0.1 mm 1 mps 752 mmHg 66%
12:00 +35°C° 0.1 mm 1 mps 752 mmHg 62%
13:00 +35°C° 1.5 mm 1 mps 751 mmHg 62%
14:00 +35°C° 1.5 mm 1 mps 750 mmHg 63%
15:00 +35°C° 1.5 mm 1 mps 750 mmHg 64%
16:00 +34°C° 0.3 mm 1 mps 750 mmHg 67%
17:00 +34°C° 0.3 mm 2 mps 750 mmHg 71%
18:00 +32°C° 0.3 mm 2 mps 750 mmHg 75%
19:00 +31°C° 0 mm 2 mps 750 mmHg 78%
20:00 +31°C° 0 mm 2 mps 751 mmHg 80%
21:00 +30°C° 0 mm 3 mps 752 mmHg 83%
22:00 +30°C° 1 mm 3 mps 752 mmHg 84%
23:00 +30°C° 1 mm 3 mps 752 mmHg 85%

30 September, Wednesday

Time Temperature Precipitation Wind Pressure Humidity
00:00 +29°C° 1 mm 2 mps 752 mmHg 85%
01:00 +29°C° 0.5 mm 2 mps 751 mmHg 86%
02:00 +29°C° 0.5 mm 2 mps 751 mmHg 86%
03:00 +29°C° 0.5 mm 2 mps 751 mmHg 87%
04:00 +29°C° 0 mm 2 mps 751 mmHg 87%
05:00 +29°C° 0 mm 1 mps 751 mmHg 88%
06:00 +29°C° 0 mm 1 mps 751 mmHg 88%
07:00 +30°C° 0 mm 1 mps 752 mmHg 84%
08:00 +31°C° 0 mm 1 mps 752 mmHg 80%
09:00 +32°C° 0 mm 1 mps 753 mmHg 75%
10:00 +33°C° 0 mm 1 mps 752 mmHg 71%
11:00 +34°C° 0 mm 1 mps 752 mmHg 66%
12:00 +35°C° 0 mm 1 mps 751 mmHg 62%
13:00 +36°C° 0 mm 2 mps 751 mmHg 63%
14:00 +36°C° 0 mm 2 mps 750 mmHg 64%
15:00 +35°C° 0 mm 2 mps 749 mmHg 64%
16:00 +34°C° 0.2 mm 2 mps 750 mmHg 68%
17:00 +32°C° 0.2 mm 2 mps 750 mmHg 72%
18:00 +31°C° 0.2 mm 3 mps 750 mmHg 76%
19:00 +31°C° 0 mm 3 mps 750 mmHg 79%
20:00 +30°C° 0 mm 2 mps 751 mmHg 81%
21:00 +30°C° 0 mm 2 mps 752 mmHg 83%
22:00 +30°C° 0 mm 2 mps 752 mmHg 84%
23:00 +30°C° 0 mm 2 mps 752 mmHg 84%
Show more